Regional Weather Roundup
Issued by NWS

Home | Current Version | Previous Version | Text Only | Print | Product List | Glossary On
Versions: 1 2 3 4 5 6 7 8 9 10 11 12 13 14 15 16 17 18 19 20 21 22 23 24 25 26 27 28 29 30 31 32 33 34 35 36 37 38 39 40 41 42 43 44 45 46 47 48 49 50
000
ASUS43 KOAX 221502
RWRNE

WEATHER ROUNDUP FOR NEBRASKA
NATIONAL WEATHER SERVICE OMAHA NE
1000 AM CDT WED MAR 22 2017

NOTES: SATELLITE DATA IS BEING USED TO AUGMENT CLOUD COVER ABOVE
       12000 FEET.
       "FAIR" INDICATES FEW OR NO CLOUDS BELOW 12,000 FEET WITH NO
       SIGNIFICANT WEATHER AND/OR OBSTRUCTIONS TO VISIBILITY.

  * THESE STATIONS DO NOT REPORT WEATHER SUCH AS RAIN...SNOW OR FOG.

NEZ001>004-019>022-054>056-221600-
NEBRASKA PANHANDLE

CITY           SKY/WX    TMP DP  RH WIND       PRES   REMARKS
SCOTTSBLUFF    CLOUDY    43  28  55 SE15      30.03F
ALLIANCE       CLOUDY    36  31  82 S22G31    30.05S WCI  25
CHADRON        CLOUDY    43  32  65 S17G32    29.97F
KIMBALL        CLOUDY    38  29  70 S15G28    30.05F WCI  29
SIDNEY         CLOUDY    40  32  73 S26G33    30.08F WCI  29
$$

NEZ057>060-069>072-079>082-221600-
SOUTHWEST NEBRASKA

CITY           SKY/WX    TMP DP  RH WIND       PRES   REMARKS
NORTH PLATTE   CLOUDY    38  23  55 SE14G21   30.21F WCI  30
IMPERIAL       PTSUNNY   39  26  59 SE18G26   30.18F WCI  30
LEXINGTON      CLOUDY    37  24  59 SE14      30.28R WCI  28
MCCOOK         CLOUDY    38  25  59 SE15      30.25F WCI  29
OGALLALA       CLOUDY    40  27  59 S16G25    30.17S WCI  32
$$

NEZ005>010-023>029-035>040-094-221600-
NORTH CENTRAL NEBRASKA

CITY           SKY/WX    TMP DP  RH WIND       PRES   REMARKS
VALENTINE      CLOUDY    34  26  72 S17G25    30.15F WCI  23
AINSWORTH      CLOUDY    32  29  90 S21G28    30.18S WCI  20
BROKEN BOW     CLOUDY    35  27  72 S16G26    30.25F WCI  25
O`NEILL        CLOUDY    32  27  81 SE15G23   30.28F WCI  22
ORD            CLOUDY    34  24  67 SE18      30.28F WCI  23
THEDFORD       CLOUDY    37  26  65 S24       30.19F WCI  25
$$

NEZ041-046>049-061>064-073>077-083>087-221600-
SOUTH CENTRAL NEBRASKA

CITY           SKY/WX    TMP DP  RH WIND       PRES   REMARKS
GRAND ISLAND   CLOUDY    35  24  64 SE13      30.34S WCI  26
AURORA         CLOUDY    36  22  56 SE16      30.34F WCI  27
HASTINGS       CLOUDY    36  23  59 SE13      30.33F WCI  27
HEBRON         SUNNY     38  24  55 E13G18    30.35F WCI  30
HOLDREGE       CLOUDY    37  23  58 SE20      30.27F WCI  26
KEARNEY *      CLOUDY    37  21  52 SE18      30.30F WCI  27
YORK           PTSUNNY   36  21  55 SE14      30.35F WCI  27
$$

NEZ011>018-030>034-042>045-221600-
NORTHEAST NEBRASKA

CITY           SKY/WX    TMP DP  RH WIND       PRES   REMARKS
NORFOLK        CLOUDY    30  22  72 SE15      30.37F WCI  19
ALBION         PTSUNNY   35  24  64 SE14      30.34  WCI  26
BLAIR          CLOUDY    33  22  63 E8        30.41R WCI  26
FREMONT        CLOUDY    33  23  67 SE7       30.42R WCI  27
TEKAMAH        CLOUDY    33  20  58 SE16      30.43S WCI  23
WAYNE          CLOUDY    30  25  81 SE13      30.40S WCI  20
$$

NEZ050>053-065>068-078-088>093-221600-
SOUTHEAST NEBRASKA

CITY           SKY/WX    TMP DP  RH WIND       PRES   REMARKS
LINCOLN        MOSUNNY   39  20  46 SE10      30.41F WCI  32
OMAHA EPPLEY   LGT RAIN  34  21  59 SE12      30.42F WCI  25
BEATRICE       SUNNY     39  22  49 E12       30.38S WCI  32
FALLS CITY     CLOUDY    39  20  46 E10       30.39R WCI  32
NEBRASKA CITY  CLOUDY    36  14  40 E9        30.41R WCI  29
PLATTSMOUTH    CLOUDY    33  20  57 E8        30.42R WCI  26
$$

NEZ044-045-051>053-067-221600-
OMAHA AREA

CITY           SKY/WX    TMP DP  RH WIND       PRES   REMARKS
OMAHA EPPLEY   LGT RAIN  34  21  59 SE12      30.42F WCI  25
BLAIR          CLOUDY    33  22  63 E8        30.41R WCI  26
FREMONT        CLOUDY    33  23  67 SE7       30.42R WCI  27
MILLARD        CLOUDY    35  24  62 E6        30.42S WCI  30
OFFUTT AFB     CLOUDY    33  22  61 E8        30.42S WCI  27
PLATTSMOUTH    CLOUDY    33  20  57 E8        30.42R WCI  26
WAHOO          FAIR      34  22  61 SE12      30.41S WCI  26
$$



USA.gov is the U.S. government's official web portal to all federal, state and local government web resources and services.